Regional Weather Roundup
Issued by NWS Sioux Falls, SD

Home | Current Version | Previous Version | Text Only | Print | Product List | Glossary On
Versions: 1 2 3 4 5 6 7 8 9 10 11 12 13 14 15 16 17 18 19 20 21 22 23 24 25 26 27 28 29 30 31 32 33 34 35 36 37 38 39 40 41 42 43 44 45 46 47 48 49 50
000
ASUS43 KFSD 300610
RWRFSD

WEATHER ROUNDUP FOR SE SOUTH DAKOTA/SW MINNESOTA/NW IOWA
NATIONAL WEATHER SERVICE SIOUX FALLS SD
100 AM CDT SUN AUG 30 2015

NOTE: "FAIR" INDICATES FEW OR NO CLOUDS BELOW 12,000 FEET WITH NO
SIGNIFICANT WEATHER AND OR OBSTRUCTIONS TO VISIBILITY.


SDZ038>040-050-052>070-300700-
SOUTHEAST SOUTH DAKOTA

CITY           SKY/WX    TMP DP  RH WIND       PRES   REMARKS
BROOKINGS      CLOUDY    64  61  88 S13       29.99F
CHAMBERLAIN    CLEAR     67  61  80 S7        29.92S
6HR MIN TEMP:  67; 6HR MAX TEMP:  79;

HURON          CLEAR     66  65  96 S10       29.91S
6HR MIN TEMP:  66; 6HR MAX TEMP:  79;

MADISON        CLOUDY    63  63 100 S14       29.99R FOG
MITCHELL       CLEAR     67  65  93 S10       29.94S
6HR MIN TEMP:  67; 6HR MAX TEMP:  78;

SIOUX FALLS    FAIR      63  60  90 S9        30.00S
6HR MIN TEMP:  63; 6HR MAX TEMP:  72;

WINNER         FAIR      74  59  59 S17       29.92F
YANKTON        FAIR      63  61  94 SE8       29.98S
$$

MNZ071-072-080-081-089-090-097-098-300700-
SOUTHWEST MINNESOTA

CITY           SKY/WX    TMP DP  RH WIND       PRES   REMARKS
FAIRMONT       FAIR      61  55  82 S8        30.02F
JACKSON        FOG       61  61 100 S10       30.03S VSB 1/4
LUVERNE        MOCLDY    61  59  94 S5        30.02S FOG
MARSHALL       FAIR      64  57  77 S13       29.97F
6HR MIN TEMP:  64; 6HR MAX TEMP:  75;

MONTEVIDEO     FAIR      64  64 100 S7        29.96S
PIPESTONE      FAIR      61  61 100 SW6       30.01S FOG
REDWOOD FALLS  FAIR      62  61  96 S9        29.98S
TRACY          FAIR      65  63  93 SW12G20   29.97F
WINDOM         FOG       63  61  94 S7        30.01S VSB 3/4
WORTHINGTON    CLOUDY    63  59  88 S7        30.02S VSB 1
$$

IAZ001>003-012>014-020>022-031-032-NEZ013-014-SDZ071-300700-
NORTHWEST IOWA

CITY           SKY/WX    TMP DP  RH WIND       PRES   REMARKS
CHEROKEE       CLOUDY    62  62 100 S9        30.04F
DENISON        CLOUDY    64  63  94 VRB6G13   30.04S
ESTHERVILLE    CLOUDY    60  60 100 S10       30.03F
LE MARS        CLOUDY    64  63  94 S9G16     30.03F
ORANGE CITY    CLOUDY    63  63 100 S10G17    30.03S FOG
SHELDON        CLOUDY    63  63 100 S10       30.02S
SIOUX CITY     NOT AVBL
SPENCER        FOG       62  60  93 S12       30.04S VSB 3/4
6HR MIN TEMP:  61; 6HR MAX TEMP:  71;

STORM LAKE     CLOUDY    63  61  94 S9        30.06S
$$

ABBREVIATIONS USED IN REMARKS
   TC - TEMPERATURE IN CELSIUS
  WCI - WIND CHILL INDEX
   HX - HEAT INDEX
  VSB - VISIBILITY




USA.gov is the U.S. government's official web portal to all federal, state and local government web resources and services.